Tracking 30258 objects as of 19-Feb-2025
HD Live streaming from Space Station
objects crossing your sky now

AMC-2 (GE-2)

Track AMC-2 (GE-2) now!
AMC-2 (GE-2) is classified as:


NORAD ID: 24713
Int'l Code: 1997-002A
Perigee: 36,009.4 km
Apogee: 36,027.3 km
Inclination: 9.8 °
Period: 1,447.6 minutes
Semi major axis: 42389 km
RCS: 28.4382 m2 (large)
Launch date: January 30, 1997
Source: SOCIETE EUROPEENNE DES SATELLITES (SES)
Launch site: FRENCH GUIANA (FRGUI)

Broadcasting, business, cable; CONUS, Hawaii, Caribbean, southern Canada; 24 Ku- and 24 C-band
Your satellite tracking list
Your tracking list is empty




NASA's NSSDC Master Catalog

Two Line Element Set (TLE):
1 24713U 97002A   25050.61596726 -.00000231  00000-0  00000-0 0  9996
2 24713   9.8168  49.3227 0002111 184.9792 299.2706  0.99475735102628
Source of the keplerian elements: AFSPC